Wind_Speed
9 9 8 8 8 8 9 8 9 9 8 9 9 9 9 10 9 8 9 9 9 9 8 9 9 9 9 9 8 7 7 6 6 5 5 4 4 4 3 3 3 3 2
9 9 9 9 9 9 9 9 9 9 9 9 9 9 9 10 9 9 9 8 8 9 9 9 9 9 10 9 8 8 7 6 6 6 5 5 5 4 4 3 3 2 2
9 9 9 9 9 9 9 9 9 9 9 9 9 9 9 10 10 9 9 9 8 9 9 9 9 10 10 9 8 7 7 7 6 6 6 5 5 4 4 4 3 3 3
10 10 9 9 9 9 9 9 9 10 10 9 9 10 10 10 10 10 9 9 8 9 9 9 10 9 10 9 8 7 7 7 6 6 6 5 5 5 4 4 4 4 3
9 9 9 10 9 9 9 9 9 9 9 10 10 9 9 10 10 9 9 9 9 10 10 9 9 9 9 9 8 7 6 6 6 5 5 5 4 5 5 4 4 3 3
9 9 9 9 9 9 8 9 8 9 9 10 10 9 9 9 9 9 8 8 9 9 9 9 9 9 8 8 7 6 5 5 5 4 4 4 3 4 4 4 3 2 2
8 7 7 7 8 9 9 8 8 9 9 9 9 9 8 8 8 8 8 8 8 8 8 8 9 8 8 7 6 5 4 4 4 4 4 3 3 2 2 3 2 2 2
7 7 6 7 8 9 9 8 9 9 9 8 9 8 8 8 7 7 7 7 8 8 8 8 8 8 7 6 5 5 4 4 4 4 4 3 2 2 2 2 2 2 2
7 7 7 8 8 8 8 8 8 8 8 8 8 8 7 8 7 6 7 8 7 7 7 7 8 7 6 6 5 5 4 4 4 4 4 3 2 2 2 2 2 2 2
8 8 7 7 7 8 8 8 8 8 8 8 8 7 7 6 7 7 8 8 8 7 7 7 7 6 5 5 5 4 4 3 4 4 3 3 2 2 2 2 2 2 2
8 8 7 7 7 7 7 7 6 7 7 8 7 7 6 6 7 7 7 8 8 7 6 6 6 5 5 5 4 3 3 3 3 3 3 2 2 1 1 1 1 1 1
9 8 8 8 7 7 6 6 6 7 7 8 8 7 7 7 7 6 6 7 7 6 6 6 6 5 5 5 4 3 3 3 3 2 2 1 1 1 1 1 1 2 2
9 8 7 7 7 7 7 7 7 7 7 8 7 7 7 7 6 6 6 6 6 5 5 5 5 5 4 5 4 3 3 3 3 2 1 1 1 1 0 0 0 1 2
8 8 7 7 7 7 7 7 7 7 7 7 7 6 6 7 7 7 7 6 5 4 4 5 4 4 4 4 3 3 2 2 2 1 1 1 1 1 1 1 2 2 2
7 7 7 6 7 6 7 7 7 7 7 7 7 6 6 6 6 6 6 5 4 4 3 4 3 3 3 3 3 2 2 1 1 0 0 1 0 1 1 1 2 3 3
6 6 6 5 6 6 6 6 7 6 6 6 6 5 5 5 5 5 5 4 4 3 3 3 3 3 3 2 2 2 2 1 1 1 1 1 1 2 2 3 3 4 4
5 5 5 5 5 5 6 6 6 5 5 5 4 4 4 4 4 4 3 3 3 3 4 4 3 3 2 1 1 1 1 1 1 1 2 2 3 3 4 4 5 5 6
4 4 3 3 3 4 4 4 5 5 4 4 3 3 4 4 3 3 3 3 3 3 3 3 3 2 2 1 1 1 2 2 2 2 2 3 3 4 5 5 6 6 6
3 2 2 3 3 2 2 2 3 3 3 3 2 2 3 3 2 2 2 2 2 3 3 2 2 2 1 0 0 1 2 3 3 3 4 4 4 4 5 7 7 7 8
3 2 2 2 2 1 1 1 2 2 2 2 1 1 2 2 1 1 1 1 1 2 2 2 1 1 1 1 1 2 2 3 4 4 5 5 5 5 6 6 7 8 8
3 3 3 3 2 2 2 2 1 1 2 2 2 2 2 3 2 2 2 2 2 2 2 2 3 3 2 2 3 3 4 4 5 5 5 6 6 6 6 7 7 8 8
5 4 4 4 3 3 2 3 3 2 2 3 3 4 4 5 4 3 3 3 4 4 4 4 4 4 4 4 3 4 5 6 6 7 7 7 7 7 8 8 8 8 9
6 6 5 5 5 4 4 4 4 4 4 4 5 5 6 5 5 5 4 4 5 6 6 6 5 5 5 5 5 6 6 7 8 8 8 8 8 9 9 9 9 9 10
8 7 7 7 6 5 5 5 5 6 6 6 6 5 6 6 6 5 6 6 6 7 8 7 7 7 7 7 7 8 8 8 9 9 9 9 10 10 10 10 10 11 11
9 8 8 8 8 7 7 7 7 7 7 7 7 6 7 7 7 6 7 7 8 8 8 8 8 8 8 9 9 9 9 9 9 9 10 11 12 12 12 12 12 12 12
10 9 9 9 9 9 9 9 9 9 8 8 7 8 8 8 8 8 8 8 8 8 8 9 9 9 9 10 10 11 10 10 10 11 11 12 12 13 13 13 13 14 14
Wind_Direction
93 95 92 90 92 107 122 126 124 127 124 121 119 117 117 114 110 111 118 118 120 118 118 120 122 123 119 116 117 117 119 113 112 118 112 105 101 99 102 102 101 107 110
96 98 96 98 99 107 116 125 124 124 122 119 116 116 115 114 111 107 112 119 117 116 121 126 125 122 119 117 118 120 120 116 112 110 109 107 103 100 103 104 105 111 111
100 100 100 103 104 107 113 120 123 124 122 119 116 115 116 118 117 112 113 116 119 117 121 123 124 123 122 120 122 124 121 116 106 107 109 109 107 106 107 113 117 119 121
101 99 101 104 105 110 119 121 121 121 123 123 119 117 116 117 117 113 112 117 118 120 123 122 126 124 125 123 124 121 120 110 103 105 108 110 107 108 114 120 118 119 121
99 100 101 102 103 110 119 121 123 122 125 127 125 121 119 117 116 114 112 113 117 120 125 127 129 123 126 125 127 126 123 114 112 112 112 110 110 109 114 124 124 120 117
98 100 102 104 102 107 117 127 128 129 125 127 130 128 125 119 117 115 113 114 119 125 126 127 128 128 129 124 125 126 121 125 123 122 121 117 117 120 115 123 130 130 123
97 95 98 100 102 108 115 122 126 128 125 124 126 125 122 119 118 118 120 117 121 126 126 129 126 127 129 128 129 126 123 130 132 134 136 134 128 130 130 128 120 132 150
93 93 97 101 108 109 113 115 119 123 125 126 124 124 120 121 126 126 126 124 122 123 127 125 124 126 125 123 128 132 133 136 139 150 148 145 152 162 152 149 138 133 145
92 93 94 103 103 103 111 115 117 122 127 130 132 131 128 129 129 134 133 129 128 128 128 127 129 128 128 126 124 134 134 137 141 152 157 157 166 177 178 180 181 179 165
93 96 97 96 99 100 105 112 116 123 130 132 131 131 129 128 125 125 128 128 128 127 125 124 129 130 130 135 133 131 129 131 140 152 152 148 158 178 178 185 187 188 183
89 93 98 95 97 99 101 105 109 117 127 134 132 129 126 124 124 127 125 127 126 122 121 126 133 134 130 133 134 130 127 133 137 141 147 153 158 164 170 192 198 205 215
83 86 90 97 98 96 96 102 109 117 122 126 127 124 121 121 125 127 125 123 120 118 117 125 124 124 127 127 125 112 105 120 125 135 154 169 183 176 184 202 221 241 245
77 81 86 88 88 89 91 100 111 116 118 121 126 124 121 123 126 128 126 128 125 116 117 129 126 126 128 124 122 115 110 111 108 115 138 172 197 197 226 295 291 298 289
77 79 79 79 87 88 92 97 105 115 118 120 123 125 125 126 128 126 128 128 124 121 122 134 142 147 142 136 127 127 124 118 122 125 143 181 198 230 251 299 330 320 313
75 74 75 78 88 89 95 99 102 108 113 118 120 122 129 137 133 123 120 123 120 121 128 139 156 158 165 150 137 138 147 144 121 149 215 205 236 277 274 289 305 317 311
72 72 70 75 92 92 94 103 102 106 112 117 123 122 128 136 136 131 117 117 117 118 122 137 152 153 159 159 160 167 175 194 206 230 269 267 271 278 272 276 287 293 300
65 65 64 71 83 96 98 110 116 116 120 124 124 129 127 131 137 129 105 107 118 126 124 128 138 140 140 156 190 198 202 216 271 282 289 291 288 289 285 283 291 295 300
54 56 55 59 71 80 97 110 119 121 124 134 132 136 143 138 123 120 118 120 117 134 140 136 129 128 127 144 203 247 249 251 271 287 298 301 296 294 289 281 284 290 296
25 36 35 41 56 58 76 106 122 124 134 139 126 126 133 133 133 124 150 140 135 145 155 154 129 122 132 148 289 267 263 274 278 286 291 289 294 299 296 283 280 286 291
1 1 11 7 15 43 38 44 142 150 156 162 143 134 154 160 169 176 183 165 170 187 197 198 187 195 207 252 298 305 296 285 286 284 286 289 290 293 299 295 289 292 295
330 332 339 342 333 339 347 353 359 203 200 204 217 217 210 218 225 229 233 223 235 248 252 247 242 246 259 272 283 290 294 290 291 290 289 289 290 291 294 299 299 297 298
314 306 312 322 315 315 319 320 318 307 253 243 236 240 238 235 239 242 239 248 258 263 264 265 260 258 272 283 290 290 287 288 285 287 287 286 290 292 294 295 295 298 300
298 296 296 305 302 297 298 297 292 290 282 267 250 245 240 235 238 243 250 257 259 261 268 270 267 268 275 285 288 291 290 288 287 286 289 291 290 292 292 291 289 291 293
290 290 290 293 291 288 290 288 285 285 283 280 272 259 252 245 243 246 250 261 269 268 268 267 269 277 282 286 286 288 287 285 286 289 291 295 292 290 289 289 288 287 289
285 286 286 288 285 281 282 283 283 283 281 282 276 269 268 259 254 258 266 272 276 275 270 270 277 282 284 289 289 287 285 286 287 290 294 295 293 290 290 288 288 287 289
279 282 285 288 284 281 280 280 279 279 279 277 274 275 272 267 266 268 268 270 278 278 276 274 275 277 280 287 288 286 285 285 287 288 293 295 296 294 292 290 289 288 289
Height
5890 5889 5888 5888 5886 5884 5886 5888 5889 5889 5890 5890 5890 5890 5891 5891 5892 5892 5892 5893 5893 5894 5895 5895 5895 5896 5897 5897 5898 5898 5899 5899 5899 5899 5899 5899 5899 5899 5900 5900 5900 5900 5900
5891 5890 5890 5889 5889 5888 5888 5889 5890 5890 5891 5891 5891 5891 5891 5892 5893 5893 5893 5893 5894 5895 5895 5896 5896 5897 5898 5899 5899 5900 5900 5900 5900 5900 5900 5900 5900 5900 5900 5901 5901 5901 5901
5892 5891 5891 5891 5890 5890 5890 5891 5891 5891 5891 5892 5892 5892 5892 5893 5893 5894 5894 5895 5895 5896 5897 5897 5898 5898 5899 5900 5900 5901 5901 5901 5901 5901 5901 5901 5901 5901 5901 5901 5901 5902 5902
5893 5892 5892 5892 5892 5892 5892 5892 5892 5892 5892 5893 5893 5893 5894 5894 5895 5895 5896 5896 5897 5897 5898 5898 5899 5899 5900 5901 5901 5902 5902 5902 5902 5902 5902 5902 5902 5902 5902 5902 5902 5902 5903
5894 5893 5893 5893 5893 5893 5893 5893 5893 5893 5893 5894 5894 5894 5895 5895 5896 5896 5897 5897 5898 5898 5899 5899 5900 5900 5901 5902 5902 5902 5903 5903 5903 5903 5903 5903 5903 5903 5903 5903 5903 5903 5903
5895 5895 5895 5894 5894 5893 5893 5893 5894 5894 5894 5894 5895 5895 5896 5896 5897 5897 5898 5898 5898 5899 5900 5900 5901 5901 5902 5902 5903 5903 5903 5903 5903 5904 5904 5904 5904 5904 5904 5904 5904 5904 5904
5896 5896 5896 5895 5895 5894 5894 5894 5894 5895 5895 5895 5896 5896 5897 5897 5898 5898 5899 5899 5899 5900 5900 5901 5901 5902 5903 5903 5903 5903 5904 5904 5904 5904 5904 5904 5904 5904 5905 5905 5904 5904 5904
5898 5897 5897 5896 5896 5895 5895 5895 5895 5895 5896 5896 5897 5897 5898 5898 5899 5899 5899 5900 5900 5900 5901 5901 5902 5902 5903 5903 5904 5904 5904 5904 5904 5904 5904 5905 5905 5905 5905 5905 5905 5905 5905
5899 5899 5898 5897 5897 5896 5896 5896 5896 5896 5896 5897 5897 5898 5898 5899 5899 5899 5900 5900 5900 5901 5901 5902 5902 5903 5903 5904 5904 5904 5904 5904 5904 5904 5905 5905 5905 5905 5905 5905 5905 5905 5905
5900 5900 5900 5899 5898 5898 5897 5897 5897 5897 5897 5898 5898 5899 5899 5899 5899 5900 5900 5900 5901 5901 5902 5902 5903 5903 5903 5904 5904 5905 5905 5905 5905 5905 5905 5905 5905 5905 5905 5905 5905 5905 5905
5902 5901 5901 5900 5900 5899 5899 5898 5898 5898 5898 5899 5899 5899 5899 5900 5900 5901 5901 5901 5901 5902 5903 5903 5904 5904 5904 5904 5904 5905 5905 5905 5905 5905 5905 5905 5905 5905 5905 5905 5905 5905 5905
5904 5903 5902 5902 5901 5900 5900 5899 5899 5899 5899 5900 5900 5900 5901 5901 5901 5902 5902 5902 5902 5903 5903 5904 5904 5904 5904 5905 5905 5905 5905 5905 5905 5905 5905 5905 5905 5905 5905 5905 5905 5905 5905
5905 5905 5904 5903 5903 5902 5901 5900 5900 5900 5900 5901 5901 5901 5902 5902 5902 5902 5902 5903 5903 5904 5904 5904 5904 5905 5905 5905 5905 5905 5905 5905 5905 5905 5905 5905 5905 5905 5905 5905 5904 5904 5904
5907 5907 5906 5905 5904 5903 5903 5902 5902 5902 5902 5902 5903 5903 5903 5903 5903 5903 5903 5903 5904 5904 5904 5905 5905 5905 5905 5905 5905 5906 5905 5905 5905 5905 5905 5905 5905 5905 5905 5905 5904 5904 5903
5909 5909 5907 5907 5906 5905 5904 5904 5903 5904 5904 5904 5904 5904 5904 5904 5904 5904 5904 5904 5904 5905 5905 5905 5905 5905 5905 5906 5906 5906 5906 5905 5905 5905 5905 5905 5905 5905 5905 5904 5904 5903 5903
5911 5910 5909 5908 5907 5907 5906 5906 5905 5905 5905 5905 5905 5905 5905 5905 5905 5905 5905 5905 5905 5905 5905 5905 5905 5905 5905 5906 5906 5906 5905 5905 5905 5905 5905 5905 5904 5904 5904 5904 5903 5903 5902
5913 5912 5911 5909 5909 5908 5907 5907 5906 5906 5906 5906 5906 5906 5906 5906 5906 5905 5905 5905 5905 5904 5905 5905 5905 5905 5906 5906 5906 5905 5905 5905 5905 5905 5905 5904 5904 5904 5903 5903 5903 5902 5901
5914 5913 5912 5910 5910 5909 5908 5908 5907 5907 5907 5907 5907 5906 5906 5906 5906 5906 5906 5906 5905 5905 5905 5906 5906 5906 5906 5905 5905 5905 5905 5905 5905 5904 5904 5904 5903 5903 5902 5902 5901 5901 5900
5914 5913 5912 5911 5910 5909 5909 5908 5908 5907 5907 5907 5907 5907 5906 5906 5906 5906 5906 5906 5906 5906 5906 5906 5906 5906 5906 5905 5905 5905 5905 5904 5904 5904 5903 5903 5902 5902 5901 5900 5900 5899 5898
5915 5914 5913 5912 5911 5910 5909 5908 5908 5907 5907 5907 5907 5907 5907 5907 5907 5906 5906 5906 5906 5906 5906 5906 5906 5906 5905 5905 5905 5904 5904 5904 5903 5903 5902 5902 5901 5901 5900 5899 5898 5897 5897
5915 5914 5913 5912 5911 5910 5909 5909 5908 5907 5907 5907 5906 5906 5906 5906 5906 5906 5906 5906 5906 5906 5906 5906 5906 5905 5905 5905 5904 5904 5903 5903 5902 5902 5901 5901 5900 5899 5898 5897 5897 5896 5895
5915 5914 5913 5912 5911 5910 5910 5909 5908 5907 5907 5906 5906 5906 5905 5905 5905 5906 5906 5905 5905 5905 5905 5905 5905 5905 5904 5904 5904 5903 5903 5902 5901 5900 5900 5899 5898 5898 5897 5896 5895 5894 5893
5915 5914 5913 5912 5911 5910 5909 5908 5908 5907 5906 5906 5905 5905 5905 5904 5905 5905 5905 5904 5904 5904 5904 5904 5904 5903 5903 5903 5902 5902 5901 5901 5900 5899 5898 5897 5896 5895 5895 5894 5893 5892 5891
5914 5913 5912 5911 5910 5910 5909 5908 5907 5906 5906 5905 5904 5904 5904 5904 5904 5904 5904 5903 5903 5903 5903 5902 5902 5902 5901 5901 5900 5900 5899 5898 5898 5897 5896 5895 5894 5893 5892 5891 5890 5889 5888
5912 5912 5911 5910 5909 5909 5908 5907 5906 5906 5905 5904 5903 5903 5903 5902 5902 5902 5902 5902 5902 5901 5901 5901 5900 5900 5900 5899 5898 5898 5897 5896 5895 5895 5894 5893 5891 5890 5889 5888 5887 5886 5885
5911 5910 5910 5909 5908 5907 5906 5906 5905 5904 5903 5903 5902 5902 5901 5901 5901 5900 5900 5900 5900 5899 5899 5899 5898 5898 5897 5897 5896 5895 5895 5894 5893 5892 5891 5890 5889 5887 5886 5885 5884 5883 5882